902  
NZUS99 KSGF 212007  
HRRSGF  
 
HOURLY WEATHER  
NATIONAL WEATHER SERVICE SPRINGFIELD MO  
300 PM CDT SAT SEP 21 2019  
   
.....SGF CWA...
 
 
 
CITY SKY/WX TMP DP RH WIND PRES REMARKS  
SPRINGFIELD PTSUNNY 88 66 48 S21G30 30.05F HX 90  
JOPLIN CLOUDY 81 70 69 S13 30.03F  
WEST PLAINS PTSUNNY 81 69 67 S10 30.12F  
ROLLA PTSUNNY 83 68 60 S18G24 30.07F  
OSAGE BEACH MOSUNNY 82 70 66 S10G17 30.05F  
BRANSON PTSUNNY 82 68 61 SE14 30.10F  
   
.....SURROUNDING SGF CWA...
 
 
 
CITY SKY/WX TMP DP RH WIND PRES REMARKS  
CHANUTE NOT AVBL  
PARSONS CLOUDY 80 74 81 S7G17 30.00F  
COFFEYVILLE CLOUDY 81 72 74 S13G26 29.98S  
EMPORIA MOSUNNY 80 73 79 S23G36 29.93F  
GROVE OK PTSUNNY 82 66 57 S13G21 30.04S  
ROGERS AR PTSUNNY 84 67 56 S20 30.08F  
SILOAM SPRINGS PTSUNNY 83 68 60 S20 30.07F  
HARRISON AR MOSUNNY 82 65 56 S15G21 30.11F  
NEAR YELLVILLE MOSUNNY 84 70 62 S10G16 30.10F  
   
.....KANSAS AND MISSOURI...
 
 
 
CITY SKY/WX TMP DP RH WIND PRES REMARKS  
KANSAS CTY INT CLOUDY 74 72 93 S20G32 29.94F  
DOWNTOWN KC LGT RAIN 75 70 84 S9 29.95F  
COLUMBIA CLOUDY 78 71 79 S6 30.04F  
SEDALIA MOSUNNY 76 69 79 S14 30.02S  
ST JOSEPH CLOUDY 77 71 82 S18G30 29.90S  
ST LOUIS PTSUNNY 81 68 64 S10G20 30.07F  
SPIRIT OF STL MOSUNNY 85 71 63 S10G18 30.05F HX 90  
KIRKSVILLE CLOUDY 78 70 76 S10 30.00F  
WICHITA PTSUNNY 89 70 53 S22G36 29.88F HX 94  
TOPEKA SUNNY 77 69 76 S17G32 29.91S  
OLATHE LGT RAIN 71 70 96 S18G29 29.98F  
   
.....TENNESSEE...
 
 
 
CITY SKY/WX TMP DP RH WIND PRES REMARKS  
MEMPHIS FAIR 90 58 33 SE12 30.14F  
NASHVILLE FAIR 92 51 24 VRB6 30.18F  
   
.....ARKANSAS....
 
 
 
CITY SKY/WX TMP DP RH WIND PRES REMARKS  
FAYETTEVILLE SUNNY 84 69 60 S20G28 30.08F  
FT SMITH MOSUNNY 86 70 58 SE13G18 30.04F HX 90  
LITTLE ROCK PTSUNNY 87 66 49 S9 30.11F  
   
.....OKLAHOMA....
 
 
 
CITY SKY/WX TMP DP RH WIND PRES REMARKS  
TULSA CLOUDY 84 72 67 S14G21 29.97F  
PONCA CITY CLOUDY 83 73 72 S8 29.93F  
MCALESTER PTSUNNY 86 70 58 S9 30.04F HX 90  
OKLAHOMA CITY PTSUNNY 84 73 69 S21G26 29.98F HX 90  
   
.....IOWA.........
 
 
 
CITY SKY/WX TMP DP RH WIND PRES REMARKS  
DES MOINES DRIZZLE 74 71 91 S14 29.88S FOG  
QUAD CITIES CLOUDY 79 73 82 S7 29.98F  
   
.....ILLINOIS.....
 
 
 
CITY SKY/WX TMP DP RH WIND PRES REMARKS  
QUINCY HVY RAIN 72 71 97 S8 30.02S VSB 3/4  
CHICAGO CLOUDY 77 67 71 S14G29 30.04F  
 
 
 
CLICK HERE TO GO TO PREVIOUS BULLETINS.

The Nexlab MO Page
The Nexlab KS Page Main Text Page